Location: Agendoh
(31.0664°N, 8.9343°W)
Time: 08:49:21
(UTC+00:00)

Nadezhda 4 Rocket - Pass Details

Date: 06 December 2021
Orbit: 949 x 992 km, 82.9° (Epoch: 24 January)

Event Time Altitude Azimuth Distance (km) Brightness Sun altitude
Rises 06:24:22 0° 193° (SSW) 3,614 7.1 -11.9°
Reaches altitude 10° 06:26:52 10° 196° (SSW) 2,676 6.4 -11.4°
Maximum altitude 06:32:55 63° 277° (W) 1,070 4.0 -10.2°
Drops below altitude 10° 06:39:04 10° 358° (N) 2,717 6.1 -8.9°
Sets 06:41:38 0° 2° (N) 3,674 6.8 -8.4°
